Regional Weather Roundup
Issued by NWS

Home | Current Version | Previous Version | Text Only | Print | Product List | Glossary On
Versions: 1 2 3 4 5 6 7 8 9 10 11 12 13 14 15 16 17 18 19 20 21 22 23 24 25 26 27 28 29 30 31 32 33 34 35 36 37 38 39 40 41 42 43 44 45 46 47 48 49 50
000
ASUS43 KTOP 011359
RWRKS

WEATHER ROUNDUP FOR KANSAS
NATIONAL WEATHER SERVICE GOODLAND KS
900 AM CDT WED JUL 01 2015

NOTE:  "FAIR" INDICATES FEW OR NO CLOUDS BELOW 12,000 FEET WITH NO
SIGNIFICANT WEATHER AND/OR OBSTRUCTIONS TO VISIBILITY.

KSZ001>006-013>018-027>032-041>047-011500-
NORTHWEST KANSAS

CITY           SKY/WX    TMP DP  RH WIND       PRES   REMARKS
GOODLAND       MOSUNNY   78  56  46 NW20      29.97S
HAYS           PTSUNNY   82  54  36 W16       29.79S
HILL CITY      CLOUDY    82  57  42 NW12      29.84R
RUSSELL        PTSUNNY   83  56  39 W14       29.77R
$$

KSZ061>065-074>080-084>089-011500-
SOUTHWEST KANSAS

CITY           SKY/WX    TMP DP  RH WIND       PRES   REMARKS
DODGE CITY     MOSUNNY   78  55  44 SW17      29.88S
ELKHART          N/A     80  55  42 W6          N/A
GARDEN CITY    MOSUNNY   77  56  48 W13       29.91R
GREAT BEND     MOSUNNY   81  57  44 SW10      29.81S
LIBERAL        MOSUNNY   79  57  47 SW16      29.95F
$$

KSZ066>073-081>083-090>101-011500-
SOUTHEAST KANSAS

CITY           SKY/WX    TMP DP  RH WIND       PRES   REMARKS
CHANUTE        CLOUDY    80  72  76 E3        29.90R
COFFEYVILLE    PTSUNNY   81  72  74 CALM      29.88R
HUTCHINSON     MOSUNNY   84  60  44 SW17G23   29.82F
MEDICINE LODGE   N/A     82  62  50 W12       29.86F
NEWTON         MOSUNNY   81  61  50 SW15G22   29.85F
PARSONS        PTSUNNY   81  74  79 CALM      29.90S
WICHITA INTL   PTSUNNY   80  65  59 S9        29.83F
WICHITA JABRA  MOSUNNY   80  65  59 SW15      29.84F
WINFIELD       PTSUNNY   84  67  56 SW15      29.89R
$$

KSZ007>012-019>026-033>040-048>060-102>105-011500-
NORTHEAST KANSAS

CITY           SKY/WX    TMP DP  RH WIND       PRES   REMARKS
CONCORDIA      MOSUNNY   79  65  62 SE13      29.78S
EMPORIA        MOSUNNY   82  66  58 S12G23    29.84F
LAWRENCE       PTSUNNY   73  68  84 S16       29.84F
MANHATTAN      CLOUDY    78  70  76 SE8       29.79F
OLATHE IND     PTSUNNY   73  68  84 SE15      29.87F
OLATHE EXE     PTSUNNY   71  67  87 SE16      29.86F
SALINA         CLOUDY    82  61  48 S7        29.78S
TOPEKA BILLARD CLOUDY    75  69  81 SE15G25   29.82F
TOPEKA FORBES  PTSUNNY   74  66  76 S15       29.82F
$$



USA.gov is the U.S. government's official web portal to all federal, state and local government web resources and services.